GW5630 Weather Reports


time (UTC)temp
C
wind
direction
speed
KPH
gust
KPH
rain 1hr
cm
rain 24hr
cm
rain mn
cm
humidity
%
barometer
mb
20260507051004 8 243 0.0 0.0 0.00 1.07 0.00 88 1011.3
20260507050508 8 243 0.0 0.0 0.00 1.07 0.00 88 1011.5
20260507050031 8 243 0.0 3.2 0.00 1.07 0.00 87 1011.4
20260507045505 8 243 0.0 3.2 0.00 1.07 0.00 87 1011.3
20260507045007 8 243 1.6 3.2 0.00 1.07 0.00 86 1011.2
20260507044521 8 258 0.0 3.2 0.00 1.07 0.00 86 1011.0
20260507044008 8 258 0.0 3.2 0.00 1.07 0.00 86 1011.0
20260507043506 8 257 0.0 3.2 0.00 1.07 0.00 86 1010.8
20260507043018 8 261 0.0 3.2 0.00 1.07 0.00 86 1010.8
20260507042507 8 261 1.6 3.2 0.00 1.07 0.00 86 1010.9
20260507042006 8 193 0.0 4.8 0.00 1.07 0.00 85 1010.7
20260507041530 8 195 1.6 4.8 0.00 1.07 0.00 85 1010.7
20260507041007 8 192 0.0 3.2 0.00 1.07 0.00 85 1010.9
20260507040507 8 106 0.0 3.2 0.00 1.07 0.00 85 1010.9
20260507040018 8 192 0.0 1.6 0.00 1.07 0.00 86 1011.0
20260507035507 8 155 0.0 0.0 0.00 1.07 1.07 86 1011.1
20260507035007 8 253 0.0 1.6 0.00 1.07 1.07 86 1011.5
20260507034522 8 253 0.0 1.6 0.00 1.07 1.07 86 1011.5
20260507034009 8 257 0.0 0.0 0.00 1.07 1.07 87 1011.5
20260507033506 8 257 0.0 3.2 0.00 1.07 1.07 86 1011.3
20260507033020 8 257 0.0 3.2 0.00 1.07 1.07 86 1011.2
20260507032506 8 207 0.0 3.2 0.00 1.07 1.07 86 1011.3
20260507032007 8 206 1.6 3.2 0.00 1.07 1.07 86 1011.0
20260507031527 8 263 0.0 3.2 0.00 1.07 1.07 87 1011.1
20260507031012 8 202 0.0 3.2 0.00 1.07 1.07 87 1011.0
20260507030508 8 161 0.0 3.2 0.00 1.07 1.07 87 1011.0
20260507030022 8 164 0.0 3.2 0.00 1.07 1.07 87 1011.0
20260507025507 8 164 0.0 1.6 0.00 1.07 1.07 87 1011.1
20260507025003 8 173 0.0 4.8 0.00 1.07 1.07 86 1011.0
20260507024515 8 154 0.0 4.8 0.00 1.07 1.07 86 1011.0
20260507024005 8 114 0.0 3.2 0.00 1.07 1.07 86 1011.1
20260507023501 8 188 0.0 3.2 0.00 1.07 1.07 86 1011.1
20260507023004 8 153 0.0 3.2 0.00 1.07 1.07 86 1011.4
20260507022502 8 178 0.0 3.2 0.00 1.07 1.07 86 1011.4
20260507022005 8 154 0.0 3.2 0.00 1.07 1.07 86 1011.5
20260507021508 8 189 0.0 3.2 0.00 1.07 1.07 86 1011.7
20260507021002 8 133 1.6 3.2 0.00 1.07 1.07 86 1011.6
20260507020505 8 108 0.0 3.2 0.00 1.07 1.07 86 1011.7
20260507020014 8 113 0.0 3.2 0.00 1.07 1.07 86 1011.8
20260507015506 8 153 0.0 3.2 0.00 1.07 1.07 86 1012.0
20260507015005 8 184 0.0 3.2 0.00 1.07 1.07 86 1012.0
20260507014522 8 175 0.0 8.0 0.00 1.07 1.07 86 1012.1
20260507014003 8 132 1.6 8.0 0.00 1.07 1.07 86 1011.9
20260507013504 8 94 1.6 6.4 0.00 1.07 1.07 86 1011.7
20260507013020 9 80 3.2 6.4 0.00 1.07 1.07 86 1011.7
20260507012507 9 155 1.6 11.3 0.00 1.07 1.07 86 1011.8
20260507012002 9 117 3.2 11.3 0.00 1.07 1.07 86 1012.0
20260507011509 9 95 0.0 6.4 0.00 1.07 1.07 86 1011.9
20260507011002 9 331 1.6 11.3 0.00 1.07 1.07 86 1011.8
20260507010503 9 103 3.2 11.3 0.00 1.07 1.07 86 1011.6
20260507010006 9 92 3.2 9.7 0.00 1.07 1.07 86 1011.5
20260507005504 9 89 1.6 9.7 0.00 1.07 1.07 87 1011.5
20260507005005 9 98 3.2 9.7 0.00 1.07 1.07 87 1011.4
20260507004528 10 103 0.0 3.2 0.00 1.07 1.07 88 1011.2
20260507004004 10 70 0.0 3.2 0.00 1.07 1.07 87 1011.1
20260507003507 10 10 0.0 3.2 0.00 1.07 1.07 87 1011.1
20260507003018 10 55 0.0 4.8 0.00 1.07 1.07 87 1011.0
20260507002506 10 79 1.6 4.8 0.00 1.07 1.07 86 1010.9
20260507002007 10 87 0.0 9.7 0.00 1.07 1.07 86 1010.7
20260507001524 10 96 0.0 11.3 0.00 1.07 1.07 86 1010.7
20260507001005 10 122 1.6 11.3 0.00 1.07 1.07 86 1010.6
20260507000502 10 28 1.6 6.4 0.00 1.07 1.07 85 1010.5
20260507000005 10 69 1.6 8.0 0.00 1.07 1.07 85 1010.4
20260506235506 10 295 0.0 12.9 0.00 1.07 1.07 85 1010.3
20260506235002 10 117 1.6 12.9 0.00 1.07 1.07 85 1010.2
20260506234508 11 300 1.6 12.9 0.00 1.07 1.07 86 1010.1
20260506234006 11 96 6.4 11.3 0.00 1.07 1.07 86 1010.0
20260506233506 11 71 3.2 9.7 0.00 1.07 1.07 86 1010.0
20260506233016 11 66 1.6 9.7 0.00 1.07 1.07 86 1009.9
20260506232506 11 89 4.8 9.7 0.00 1.07 1.07 85 1009.7
20260506232006 12 109 1.6 6.4 0.00 1.07 1.07 84 1009.7
20260506231531 12 150 0.0 6.4 0.00 1.07 1.07 84 1009.6
20260506231006 12 111 1.6 4.8 0.00 1.07 1.07 84 1009.6
20260506230504 13 346 1.6 4.8 0.00 1.07 1.07 85 1009.6
20260506230020 13 134 1.6 4.8 0.00 1.07 1.07 85 1009.5
20260506225503 13 136 0.0 6.4 0.00 1.07 1.07 85 1009.3
20260506225003 13 221 1.6 12.9 0.00 1.07 1.07 85 1009.2
20260506224508 14 229 4.8 14.5 0.00 1.07 1.07 84 1009.0
20260506224002 15 248 6.4 16.1 0.00 1.07 1.07 85 1008.6
20260506223502 15 233 3.2 16.1 0.00 1.07 1.07 88 1008.2
20260506223012 15 259 1.6 3.2 0.00 1.07 1.07 88 1008.0
20260506222507 15 260 1.6 6.4 0.00 1.07 1.07 88 1008.0
20260506222008 15 225 3.2 6.4 0.00 1.07 1.07 88 1007.9
20260506221519 16 259 0.0 4.8 0.00 1.07 1.07 89 1007.9
20260506221012 16 248 1.6 4.8 0.00 1.07 1.07 89 1007.8
20260506220509 16 261 1.6 4.8 0.00 1.07 1.07 88 1007.8
20260506220024 16 261 1.6 4.8 0.00 1.07 1.07 88 1007.7
20260506215509 16 229 0.0 3.2 0.00 1.07 1.07 88 1007.6
20260506215010 16 260 0.0 3.2 0.00 1.07 1.07 87 1007.6
20260506214519 16 260 0.0 3.2 0.00 1.07 1.07 87 1007.5
20260506214005 16 268 0.0 3.2 0.00 1.07 1.07 86 1007.4
20260506213502 16 249 1.6 4.8 0.00 1.07 1.07 86 1007.4
20260506213012 16 275 0.0 8.0 0.00 1.07 1.07 86 1007.3
20260506212503 16 80 1.6 8.0 0.00 1.07 1.07 85 1007.3
20260506212007 16 242 3.2 8.0 0.00 1.07 1.07 85 1007.2
20260506211516 16 252 4.8 9.7 0.00 1.07 1.07 85 1007.1
20260506211008 16 235 3.2 9.7 0.00 1.07 1.07 85 1006.9
20260506210507 16 254 3.2 12.9 0.00 1.07 1.07 85 1006.8
20260506210025 16 243 6.4 12.9 0.00 1.07 1.07 85 1006.8
20260506205509 16 247 4.8 6.4 0.00 1.07 1.07 87 1006.8
20260506205005 16 258 3.2 11.3 0.00 1.07 1.07 86 1006.8
20260506204524 16 272 4.8 9.7 0.00 1.07 1.07 86 1006.9
20260506204005 16 251 3.2 9.7 0.00 1.07 1.07 86 1006.9
20260506203511 16 250 3.2 14.5 0.00 1.07 1.07 87 1006.9
20260506203014 16 235 6.4 14.5 0.00 1.07 1.07 86 1006.7
20260506202503 16 234 4.8 11.3 0.00 1.07 1.07 87 1006.7
20260506202006 16 237 3.2 16.1 0.00 1.07 1.07 87 1006.8
20260506201529 16 268 6.4 16.1 0.00 1.07 1.07 87 1006.9
20260506201007 16 245 4.8 11.3 0.00 1.07 1.07 88 1006.9
20260506200506 16 246 4.8 8.0 0.00 1.07 1.07 89 1006.9
20260506200021 16 205 1.6 6.4 0.00 1.07 1.07 89 1007.0
20260506195507 15 242 4.8 9.7 0.00 1.07 1.07 89 1006.9
20260506195008 15 248 4.8 9.7 0.00 1.07 1.07 90 1006.9
20260506194528 15 242 3.2 8.0 0.00 1.07 1.07 90 1007.0
20260506194007 15 229 4.8 8.0 0.00 1.07 1.07 90 1007.0
20260506193509 15 246 4.8 8.0 0.00 1.07 1.07 90 1007.1
20260506193024 15 245 4.8 12.9 0.00 1.07 1.07 90 1007.1
20260506192506 15 250 4.8 12.9 0.00 1.07 1.07 90 1007.3
20260506192011 15 243 4.8 11.3 0.00 1.07 1.07 90 1007.3
20260506191511 15 260 4.8 11.3 0.00 1.07 1.07 90 1007.3
20260506191003 15 246 6.4 11.3 0.00 1.07 1.07 91 1007.3
20260506190507 15 247 6.4 14.5 0.00 1.07 1.07 91 1007.3
20260506190019 15 234 4.8 14.5 0.00 1.07 1.07 91 1007.3
20260506185507 15 247 4.8 12.9 0.00 1.07 1.07 91 1007.3
20260506185009 15 254 6.4 12.9 0.00 1.07 1.07 91 1007.4
20260506184520 15 223 4.8 12.9 0.00 1.07 1.07 92 1007.4
20260506184011 15 248 4.8 11.3 0.00 1.07 1.07 92 1007.3
20260506183508 15 225 4.8 14.5 0.03 1.07 1.07 92 1007.3
20260506183031 15 232 8.0 14.5 0.03 1.07 1.07 92 1007.3
20260506182509 15 250 8.0 14.5 0.03 1.07 1.07 92 1007.4
20260506182010 15 223 8.0 12.9 0.05 1.07 1.07 92 1007.6
20260506181525 15 244 8.0 16.1 0.05 1.07 1.07 92 1007.6
20260506181007 15 249 6.4 16.1 0.08 1.07 1.07 92 1007.6
20260506180504 15 260 8.0 14.5 0.10 1.07 1.07 92 1007.6
20260506180016 15 237 8.0 14.5 0.13 1.07 1.07 92 1007.6
20260506175504 15 244 8.0 14.5 0.13 1.07 1.07 92 1007.7
20260506175006 15 257 6.4 16.1 0.13 1.07 1.07 92 1007.7
20260506174520 14 242 9.7 14.5 0.13 1.07 1.07 92 1007.6
20260506174008 14 245 8.0 14.5 0.13 1.07 1.07 92 1007.6
20260506173508 14 257 8.0 14.5 0.10 1.04 1.04 92 1007.6
20260506173023 14 253 8.0 14.5 0.10 1.04 1.04 92 1007.6
20260506172508 14 248 6.4 14.5 0.10 1.04 1.04 92 1007.6
20260506172008 14 267 8.0 11.3 0.10 1.02 1.02 92 1007.7
20260506171510 14 253 6.4 12.9 0.13 1.02 1.02 91 1007.7
20260506171008 14 248 8.0 14.5 0.10 0.99 0.99 91 1007.8
20260506170506 14 253 6.4 14.5 0.08 0.97 0.97 91 1007.8
20260506170033 14 204 8.0 12.9 0.05 0.94 0.94 91 1007.9
20260506165505 14 252 8.0 14.5 0.05 0.94 0.94 91 1007.8
20260506165008 14 245 6.4 14.5 0.05 0.94 0.94 91 1007.8
20260506164524 14 229 8.0 12.9 0.05 0.94 0.94 91 1007.7
20260506164011 14 259 6.4 12.9 0.05 0.94 0.94 91 1007.7
20260506163506 14 241 8.0 12.9 0.08 0.94 0.94 91 1007.7
20260506163022 14 252 6.4 12.9 0.10 0.94 0.94 91 1007.8
20260506162507 14 254 8.0 12.9 0.10 0.94 0.94 91 1007.9
20260506162013 14 232 8.0 14.5 0.10 0.91 0.91 91 1007.9
20260506161526 14 254 8.0 14.5 0.10 0.89 0.89 91 1007.8
20260506161008 14 239 6.4 14.5 0.13 0.89 0.89 91 1007.8
20260506160504 14 253 3.2 11.3 0.18 0.89 0.89 91 1007.8
20260506160010 14 251 4.8 11.3 0.20 0.89 0.89 91 1007.8
20260506155504 14 244 3.2 11.3 0.23 0.89 0.89 91 1007.8
20260506155006 14 263 1.6 6.4 0.25 0.89 0.89 91 1007.8
20260506154515 14 262 4.8 6.4 0.28 0.89 0.89 91 1007.9
20260506154008 14 209 4.8 12.9 0.28 0.89 0.89 91 1007.8
20260506153506 14 238 3.2 14.5 0.28 0.86 0.86 91 1007.9
20260506153019 14 231 4.8 14.5 0.30 0.84 0.84 91 1007.9
20260506152506 14 264 6.4 11.3 0.30 0.84 0.84 91 1007.9
20260506152008 14 271 4.8 11.3 0.30 0.81 0.81 91 1007.9
20260506151524 14 262 4.8 12.9 0.30 0.79 0.79 90 1008.0
20260506151009 14 243 6.4 12.9 0.28 0.76 0.76 90 1008.1
20260506150509 14 246 6.4 17.7 0.25 0.71 0.71 90 1008.2
20260506150025 14 265 4.8 17.7 0.25 0.69 0.69 90 1008.2
20260506145506 14 259 6.4 17.7 0.25 0.66 0.66 90 1008.2
20260506145009 14 218 6.4 9.7 0.25 0.64 0.64 90 1008.1
20260506144511 14 248 4.8 14.5 0.23 0.61 0.61 90 1008.1
20260506144005 14 229 4.8 14.5 0.23 0.61 0.61 90 1007.9
20260506143505 14 260 6.4 16.1 0.23 0.58 0.58 90 1008.2
20260506143027 14 248 9.7 16.1 0.18 0.53 0.53 90 1008.2
20260506142506 14 257 4.8 14.5 0.20 0.53 0.53 90 1007.9
20260506142007 14 248 8.0 14.5 0.20 0.51 0.51 90 1008.0
20260506141528 14 258 6.4 20.9 0.20 0.48 0.48 89 1008.2
20260506141009 14 254 3.2 20.9 0.23 0.48 0.48 89 1008.1
20260506140507 14 261 6.4 17.7 0.23 0.46 0.46 89 1008.1
20260506140026 14 207 4.8 17.7 0.23 0.43 0.43 89 1008.1
20260506135514 14 230 8.0 17.7 0.23 0.41 0.41 89 1008.2
20260506135008 14 248 4.8 12.9 0.20 0.38 0.38 89 1008.3
20260506134528 14 270 3.2 11.3 0.25 0.38 0.38 88 1008.2
20260506134004 14 226 1.6 14.5 0.28 0.38 0.38 88 1008.2
20260506133505 14 269 6.4 14.5 0.28 0.36 0.36 88 1008.3
20260506133015 14 257 6.4 11.3 0.28 0.36 0.36 88 1008.5
20260506132511 14 241 4.8 11.3 0.28 0.33 0.33 88 1008.7
20260506132010 14 218 3.2 11.3 0.28 0.30 0.30 87 1008.7
20260506131520 14 244 3.2 11.3 0.28 0.28 0.28 86 1008.7
20260506131010 14 265 3.2 11.3 0.25 0.25 0.25 86 1008.7
20260506130506 14 234 6.4 12.9 0.23 0.23 0.23 86 1008.8
20260506130025 14 235 4.8 12.9 0.20 0.20 0.20 85 1008.8
20260506125510 14 255 6.4 11.3 0.18 0.18 0.18 84 1008.9
20260506125010 15 243 6.4 11.3 0.18 0.18 0.18 84 1008.9
20260506124525 15 224 6.4 12.9 0.13 0.13 0.13 83 1009.0
20260506124010 15 257 8.0 12.9 0.10 0.10 0.10 82 1008.9
20260506123510 15 273 4.8 14.5 0.08 0.08 0.08 81 1008.9
20260506123010 15 253 6.4 14.5 0.08 0.08 0.08 80 1008.9
20260506122506 15 261 6.4 11.3 0.05 0.05 0.05 78 1008.8
20260506122011 15 240 8.0 11.3 0.03 0.03 0.03 77 1008.8
20260506121523 16 250 3.2 14.5 0.00 0.00 0.00 76 1008.7
20260506121007 16 262 6.4 14.5 0.00 0.00 0.00 76 1008.7
20260506120507 16 254 6.4 14.5 0.00 0.00 0.00 75 1008.6
20260506120033 16 236 6.4 14.5 0.00 0.00 0.00 74 1008.7
20260506115511 16 244 4.8 12.9 0.00 0.00 0.00 73 1008.6
20260506115009 16 225 4.8 12.9 0.00 0.00 0.00 73 1008.5
20260506114526 16 256 6.4 12.9 0.00 0.00 0.00 72 1008.5
20260506114012 16 201 3.2 12.9 0.00 0.00 0.00 71 1008.5
20260506113509 16 232 6.4 12.9 0.00 0.00 0.00 70 1008.4
20260506113030 16 252 4.8 12.9 0.00 0.00 0.00 70 1008.3
20260506112510 16 250 1.6 14.5 0.00 0.00 0.00 70 1008.3
20260506112015 16 230 8.0 16.1 0.00 0.00 0.00 68 1008.3
20260506111516 17 227 4.8 16.1 0.00 0.00 0.00 67 1008.3
20260506111010 17 254 4.8 11.3 0.00 0.00 0.00 67 1008.3
20260506110504 17 238 4.8 14.5 0.00 0.00 0.00 66 1008.2
20260506110020 17 259 6.4 14.5 0.00 0.00 0.00 66 1008.1
20260506105505 17 246 3.2 12.9 0.00 0.00 0.00 66 1008.1
20260506105008 17 221 4.8 12.9 0.00 0.00 0.00 65 1008.1
20260506104523 17 263 6.4 12.9 0.00 0.00 0.00 65 1008.0
20260506104009 17 259 6.4 11.3 0.00 0.00 0.00 65 1008.0
20260506103511 17 243 4.8 12.9 0.00 0.00 0.00 64 1007.9
20260506103026 17 246 4.8 12.9 0.00 0.00 0.00 64 1007.7
20260506102509 17 225 4.8 14.5 0.00 0.00 0.00 63 1007.7
20260506102010 17 265 3.2 14.5 0.00 0.00 0.00 63 1007.7
20260506101528 17 249 4.8 9.7 0.00 0.00 0.00 62 1007.6
20260506101010 17 242 4.8 12.9 0.00 0.00 0.00 62 1007.6
20260506100508 17 252 3.2 12.9 0.00 0.00 0.00 61 1007.7
20260506100018 17 257 4.8 12.9 0.00 0.00 0.00 61 1007.6
20260506095507 17 232 6.4 12.9 0.00 0.00 0.00 60 1007.6
20260506095005 17 238 4.8 12.9 0.00 0.00 0.00 60 1007.7
20260506094524 17 266 3.2 12.9 0.00 0.00 0.00 60 1007.8
20260506094011 17 263 6.4 12.9 0.00 0.00 0.00 59 1007.8
20260506093511 17 229 3.2 9.7 0.00 0.00 0.00 59 1007.8
20260506093024 17 223 3.2 11.3 0.00 0.00 0.00 59 1007.9
20260506092507 17 227 4.8 12.9 0.00 0.00 0.00 58 1008.0
20260506092011 17 246 6.4 12.9 0.00 0.00 0.00 58 1008.0
20260506091531 17 244 4.8 12.9 0.00 0.00 0.00 58 1007.9
20260506091009 17 232 6.4 12.9 0.00 0.00 0.00 58 1008.1
20260506090509 17 226 4.8 12.9 0.00 0.00 0.00 57 1008.0
20260506090041 17 221 6.4 12.9 0.00 0.00 0.00 57 1008.1
20260506085512 17 234 8.0 14.5 0.00 0.00 0.00 57 1008.0
20260506085008 17 226 8.0 14.5 0.00 0.00 0.00 56 1007.9
20260506084523 18 225 8.0 12.9 0.00 0.00 0.00 56 1008.1
20260506084009 18 227 6.4 14.5 0.00 0.00 0.00 55 1008.1
20260506083509 18 228 8.0 17.7 0.00 0.00 0.00 55 1008.0
20260506083028 18 228 8.0 16.1 0.00 0.00 0.00 55 1008.1
20260506082502 18 236 11.3 14.5 0.00 0.00 0.00 54 1008.0
20260506082001 18 259 8.0 14.5 0.00 0.00 0.00 54 1008.1
20260506081510 18 255 6.4 14.5 0.00 0.00 0.00 54 1008.1
20260506081005 18 242 8.0 14.5 0.00 0.00 0.00 53 1008.1
20260506080503 18 254 9.7 16.1 0.00 0.00 0.00 53 1008.0
20260506073508 18 233 9.7 16.1 0.00 0.00 0.00 51 1008.1
20260506073022 18 239 9.7 14.5 0.00 0.00 0.00 51 1008.0
20260506072513 18 238 6.4 14.5 0.00 0.00 0.00 50 1008.0
20260506072001 18 227 8.0 14.5 0.00 0.00 0.00 50 1008.2
20260506071507 18 232 6.4 17.7 0.00 0.00 0.00 50 1008.2
20260506071001 18 246 6.4 17.7 0.00 0.00 0.00 50 1008.3
20260506070502 18 263 9.7 17.7 0.00 0.00 0.00 49 1008.3
20260506062508 18 246 8.0 16.1 0.00 0.00 0.00 47 1008.9
20260506062010 18 232 8.0 16.1 0.00 0.00 0.00 48 1009.0
20260506061543 18 245 6.4 14.5 0.00 0.00 0.00 47 1009.1
20260506061001 18 251 8.0 14.5 0.00 0.00 0.00 47 1009.1
20260506060504 18 267 8.0 14.5 0.00 0.00 0.00 46 1009.1